Back to catalog

SERVIS 2 DEB

AliveLEO
NORAD 43394·DEBRIS·🇷🇺 Russia

Launched Jun 2, 2010 from Plesetsk Cosmodrome

Loading…

Next Passes (next 24 hours)

TLE

FreshSource: Space-Track

Epoch: Sep 14, 2026, 09:21 UTC

1 43394U 10023D   26257.38975361  .00007635  00000-0  99233-2 0  9992
2 43394 100.5646 294.9678 0027867 133.2599 227.0871 13.62092190109835

Track SERVIS 2 DEB in real time with AllMySat

Download on the App Store